| time (UTC) | temp F | wind direction | speed knots | gust knots | rain 1hr in | rain 24hr in | rain mn in | humidity % | barometer mb |
| 20260508004504 | 48 | 123 | 0.0 | 0.0 | 0.00 | 0.00 | 0.00 | 82 | 1017.4 |
| 20260508004012 | 48 | 123 | 0.0 | 0.0 | 0.00 | 0.00 | 0.00 | 82 | 1017.4 |
| 20260508003505 | 48 | 123 | 0.0 | 0.0 | 0.00 | 0.00 | 0.00 | 82 | 1017.4 |
| 20260508003012 | 49 | 123 | 0.0 | 0.9 | 0.00 | 0.00 | 0.00 | 81 | 1017.4 |
| 20260508002505 | 49 | 123 | 0.9 | 1.7 | 0.00 | 0.00 | 0.00 | 81 | 1017.5 |
| 20260508002012 | 49 | 123 | 0.0 | 1.7 | 0.00 | 0.00 | 0.00 | 81 | 1017.5 |
| 20260508001505 | 50 | 123 | 0.9 | 1.7 | 0.00 | 0.00 | 0.00 | 81 | 1017.5 |
| 20260508001012 | 50 | 123 | 0.9 | 12.2 | 0.00 | 0.00 | 0.00 | 81 | 1017.5 |
| 20260508000505 | 50 | 123 | 0.0 | 1.7 | 0.00 | 0.00 | 0.00 | 80 | 1017.5 |
| 20260508000005 | 50 | 123 | 0.0 | 0.9 | 0.00 | 0.00 | 0.00 | 80 | 1017.5 |
| 20260507235505 | 51 | 123 | 0.0 | 0.9 | 0.00 | 0.00 | 0.00 | 79 | 1017.5 |
| 20260507235011 | 51 | 123 | 0.0 | 1.7 | 0.00 | 0.00 | 0.00 | 79 | 1017.5 |
| 20260507234504 | 51 | 123 | 0.9 | 2.6 | 0.00 | 0.00 | 0.00 | 79 | 1017.6 |
| 20260507233011 | 52 | 102 | 0.9 | 2.6 | 0.00 | 0.00 | 0.00 | 78 | 1017.7 |
| 20260507232505 | 52 | 120 | 0.9 | 2.6 | 0.00 | 0.00 | 0.00 | 78 | 1017.7 |
| 20260507232012 | 52 | 116 | 1.7 | 2.6 | 0.00 | 0.00 | 0.00 | 78 | 1017.7 |
| 20260507231505 | 52 | 125 | 1.7 | 4.3 | 0.00 | 0.00 | 0.00 | 77 | 1017.8 |
| 20260507231012 | 52 | 143 | 2.6 | 4.3 | 0.00 | 0.00 | 0.00 | 77 | 1017.8 |
| 20260507230505 | 53 | 121 | 1.7 | 2.6 | 0.00 | 0.00 | 0.00 | 77 | 1017.9 |
| 20260507230005 | 53 | 132 | 1.7 | 4.3 | 0.00 | 0.00 | 0.00 | 77 | 1017.9 |
| 20260507225012 | 53 | 138 | 0.9 | 4.3 | 0.00 | 0.00 | 0.00 | 76 | 1018.0 |
| 20260507224505 | 53 | 162 | 0.9 | 2.6 | 0.00 | 0.00 | 0.00 | 75 | 1018.0 |
| 20260507223012 | 53 | 165 | 0.9 | 2.6 | 0.00 | 0.00 | 0.00 | 73 | 1018.0 |
| 20260507222504 | 53 | 142 | 0.9 | 5.2 | 0.00 | 0.00 | 0.00 | 73 | 1018.0 |
| 20260507222012 | 53 | 173 | 2.6 | 4.3 | 0.00 | 0.00 | 0.00 | 73 | 1018.0 |
| 20260507221505 | 53 | 164 | 4.3 | 5.2 | 0.00 | 0.00 | 0.00 | 73 | 1018.0 |
| 20260507221012 | 54 | 156 | 2.6 | 5.2 | 0.00 | 0.00 | 0.00 | 73 | 1018.0 |
| 20260507220506 | 54 | 161 | 3.5 | 6.1 | 0.00 | 0.00 | 0.00 | 73 | 1018.0 |
| 20260507215012 | 54 | 153 | 1.7 | 2.6 | 0.00 | 0.00 | 0.00 | 72 | 1018.2 |
| 20260507214505 | 54 | 186 | 3.5 | 5.2 | 0.00 | 0.00 | 0.00 | 72 | 1018.2 |
| 20260507214011 | 54 | 160 | 2.6 | 4.3 | 0.00 | 0.00 | 0.00 | 72 | 1018.1 |
| 20260507213505 | 54 | 164 | 1.7 | 6.1 | 0.00 | 0.00 | 0.00 | 71 | 1018.2 |
| 20260507213012 | 54 | 113 | 1.7 | 5.2 | 0.00 | 0.00 | 0.00 | 71 | 1018.1 |
| 20260507212012 | 54 | 155 | 2.6 | 4.3 | 0.00 | 0.00 | 0.00 | 71 | 1018.2 |
| 20260507211504 | 54 | 148 | 2.6 | 6.1 | 0.00 | 0.00 | 0.00 | 71 | 1018.0 |
| 20260507211012 | 54 | 159 | 1.7 | 4.3 | 0.00 | 0.00 | 0.00 | 70 | 1018.1 |
| 20260507210505 | 54 | 143 | 0.9 | 2.6 | 0.00 | 0.00 | 0.00 | 70 | 1018.0 |
| 20260507210005 | 54 | 160 | 2.6 | 4.3 | 0.00 | 0.00 | 0.00 | 70 | 1017.9 |
| 20260507205012 | 54 | 163 | 2.6 | 5.2 | 0.00 | 0.00 | 0.00 | 69 | 1017.9 |
| 20260507204011 | 54 | 174 | 4.3 | 7.8 | 0.00 | 0.00 | 0.00 | 68 | 1017.8 |
| 20260507203505 | 54 | 177 | 2.6 | 7.8 | 0.00 | 0.00 | 0.00 | 68 | 1017.6 |
| 20260507203012 | 54 | 180 | 4.3 | 7.8 | 0.00 | 0.00 | 0.00 | 69 | 1017.6 |
| 20260507202504 | 54 | 163 | 2.6 | 6.1 | 0.00 | 0.00 | 0.00 | 69 | 1017.6 |
| 20260507202011 | 55 | 177 | 3.5 | 7.8 | 0.00 | 0.00 | 0.00 | 69 | 1017.5 |
| 20260507201505 | 55 | 166 | 2.6 | 7.0 | 0.00 | 0.00 | 0.00 | 69 | 1017.5 |
| 20260507200005 | 55 | 177 | 2.6 | 7.0 | 0.00 | 0.00 | 0.00 | 69 | 1017.4 |
| 20260507195504 | 55 | 165 | 2.6 | 8.7 | 0.00 | 0.00 | 0.00 | 69 | 1017.3 |
| 20260507194504 | 55 | 165 | 1.7 | 8.7 | 0.00 | 0.00 | 0.00 | 69 | 1017.2 |
| 20260507194011 | 55 | 181 | 3.5 | 8.7 | 0.00 | 0.00 | 0.00 | 69 | 1017.2 |
| 20260507193505 | 55 | 164 | 5.2 | 8.7 | 0.00 | 0.00 | 0.00 | 69 | 1017.1 |
| 20260507193012 | 55 | 185 | 2.6 | 7.8 | 0.00 | 0.00 | 0.00 | 68 | 1017.0 |
| 20260507192504 | 55 | 160 | 6.1 | 10.4 | 0.00 | 0.00 | 0.00 | 68 | 1017.0 |
| 20260507192012 | 55 | 164 | 5.2 | 8.7 | 0.00 | 0.00 | 0.00 | 68 | 1016.9 |
| 20260507191504 | 55 | 184 | 3.5 | 7.8 | 0.00 | 0.00 | 0.00 | 68 | 1016.9 |
| 20260507191011 | 55 | 159 | 2.6 | 7.8 | 0.00 | 0.00 | 0.00 | 67 | 1017.0 |
| 20260507190505 | 55 | 146 | 5.2 | 8.7 | 0.00 | 0.00 | 0.00 | 67 | 1017.0 |
| 20260507190005 | 55 | 145 | 5.2 | 10.4 | 0.00 | 0.00 | 0.00 | 67 | 1017.0 |
| 20260507185504 | 55 | 164 | 6.1 | 8.7 | 0.00 | 0.00 | 0.00 | 66 | 1017.0 |
| 20260507185011 | 55 | 160 | 4.3 | 10.4 | 0.00 | 0.00 | 0.00 | 67 | 1017.0 |
| 20260507184505 | 55 | 180 | 7.8 | 10.4 | 0.00 | 0.00 | 0.00 | 66 | 1017.0 |
| 20260507184011 | 55 | 150 | 2.6 | 10.4 | 0.00 | 0.00 | 0.00 | 66 | 1017.0 |
| 20260507183012 | 56 | 145 | 6.1 | 10.4 | 0.00 | 0.00 | 0.00 | 65 | 1017.0 |
| 20260507182012 | 56 | 178 | 4.3 | 10.4 | 0.00 | 0.00 | 0.00 | 64 | 1017.0 |
| 20260507181012 | 56 | 147 | 5.2 | 11.3 | 0.00 | 0.00 | 0.00 | 65 | 1016.9 |
| 20260507180505 | 56 | 123 | 2.6 | 10.4 | 0.00 | 0.00 | 0.00 | 65 | 1016.8 |
| 20260507180004 | 56 | 163 | 4.3 | 8.7 | 0.00 | 0.00 | 0.00 | 65 | 1016.9 |
| 20260507175505 | 56 | 158 | 6.1 | 10.4 | 0.00 | 0.00 | 0.00 | 64 | 1016.9 |
| 20260507175011 | 56 | 161 | 3.5 | 10.4 | 0.00 | 0.00 | 0.00 | 64 | 1016.8 |
| 20260507174504 | 56 | 161 | 5.2 | 8.7 | 0.00 | 0.00 | 0.00 | 63 | 1016.8 |
| 20260507174011 | 57 | 131 | 5.2 | 10.4 | 0.00 | 0.00 | 0.00 | 63 | 1016.8 |
| 20260507173504 | 57 | 160 | 3.5 | 8.7 | 0.00 | 0.00 | 0.00 | 63 | 1016.8 |
| 20260507173011 | 57 | 164 | 5.2 | 10.4 | 0.00 | 0.00 | 0.00 | 63 | 1016.7 |
| 20260507172504 | 57 | 151 | 4.3 | 10.4 | 0.00 | 0.00 | 0.00 | 63 | 1016.7 |
| 20260507172011 | 57 | 168 | 6.1 | 10.4 | 0.00 | 0.00 | 0.00 | 63 | 1016.7 |
| 20260507171504 | 57 | 169 | 4.3 | 8.7 | 0.00 | 0.00 | 0.00 | 62 | 1016.7 |
| 20260507171011 | 57 | 160 | 5.2 | 10.4 | 0.00 | 0.00 | 0.00 | 62 | 1016.7 |
| 20260507170505 | 57 | 135 | 4.3 | 12.2 | 0.00 | 0.00 | 0.00 | 63 | 1016.6 |
| 20260507170004 | 57 | 154 | 5.2 | 11.3 | 0.00 | 0.00 | 0.00 | 64 | 1016.6 |
| 20260507165504 | 57 | 116 | 5.2 | 10.4 | 0.00 | 0.00 | 0.00 | 63 | 1016.6 |
| 20260507165011 | 57 | 118 | 5.2 | 10.4 | 0.00 | 0.00 | 0.00 | 63 | 1016.6 |
| 20260507164504 | 58 | 112 | 6.1 | 11.3 | 0.00 | 0.00 | 0.00 | 62 | 1016.6 |
| 20260507164011 | 58 | 128 | 5.2 | 11.3 | 0.00 | 0.00 | 0.00 | 62 | 1016.6 |
| 20260507163504 | 58 | 122 | 6.1 | 12.2 | 0.00 | 0.00 | 0.00 | 62 | 1016.7 |
| 20260507163012 | 58 | 153 | 4.3 | 10.4 | 0.00 | 0.00 | 0.00 | 61 | 1016.7 |
| 20260507161504 | 57 | 117 | 7.8 | 10.4 | 0.00 | 0.00 | 0.00 | 62 | 1016.8 |
| 20260507161011 | 57 | 123 | 4.3 | 7.8 | 0.00 | 0.00 | 0.00 | 60 | 1016.7 |
| 20260507160505 | 58 | 130 | 3.5 | 7.8 | 0.00 | 0.00 | 0.00 | 58 | 1016.7 |
| 20260507160004 | 58 | 143 | 4.3 | 8.7 | 0.00 | 0.00 | 0.00 | 57 | 1016.7 |
| 20260507155504 | 58 | 168 | 6.1 | 10.4 | 0.00 | 0.00 | 0.00 | 58 | 1016.8 |
| 20260507155011 | 57 | 148 | 2.6 | 7.8 | 0.00 | 0.00 | 0.00 | 59 | 1016.7 |
| 20260507154504 | 57 | 113 | 5.2 | 10.4 | 0.00 | 0.00 | 0.00 | 59 | 1016.7 |
| 20260507154011 | 58 | 124 | 5.2 | 10.4 | 0.00 | 0.00 | 0.00 | 59 | 1016.7 |
| 20260507153505 | 58 | 116 | 2.6 | 7.8 | 0.00 | 0.00 | 0.00 | 59 | 1016.8 |
| 20260507153011 | 58 | 113 | 3.5 | 8.7 | 0.00 | 0.00 | 0.00 | 59 | 1016.8 |
| 20260507152504 | 58 | 144 | 2.6 | 7.8 | 0.00 | 0.00 | 0.00 | 58 | 1016.8 |
| 20260507152011 | 59 | 134 | 4.3 | 10.4 | 0.00 | 0.00 | 0.00 | 56 | 1016.8 |
| 20260507151504 | 59 | 127 | 4.3 | 7.0 | 0.00 | 0.00 | 0.00 | 53 | 1016.8 |
| 20260507151011 | 59 | 134 | 2.6 | 6.1 | 0.00 | 0.00 | 0.00 | 53 | 1016.8 |
| 20260507150504 | 59 | 160 | 1.7 | 6.1 | 0.00 | 0.00 | 0.00 | 54 | 1016.8 |
| 20260507150005 | 59 | 126 | 1.7 | 4.3 | 0.00 | 0.00 | 0.00 | 54 | 1016.8 |
| 20260507145504 | 60 | 142 | 4.3 | 7.8 | 0.00 | 0.00 | 0.00 | 52 | 1016.9 |
| 20260507144504 | 60 | 165 | 4.3 | 8.7 | 0.00 | 0.00 | 0.00 | 53 | 1016.9 |
| 20260507144011 | 60 | 178 | 4.3 | 6.1 | 0.00 | 0.00 | 0.00 | 53 | 1016.9 |
| 20260507143504 | 60 | 101 | 2.6 | 8.7 | 0.00 | 0.00 | 0.00 | 53 | 1016.9 |
| 20260507143011 | 61 | 140 | 3.5 | 7.8 | 0.00 | 0.00 | 0.00 | 52 | 1016.9 |
| 20260507142504 | 61 | 246 | 2.6 | 6.1 | 0.00 | 0.00 | 0.00 | 53 | 1016.9 |
| 20260507142011 | 60 | 80 | 4.3 | 7.0 | 0.00 | 0.00 | 0.00 | 52 | 1017.0 |
| 20260507141012 | 61 | 144 | 5.2 | 10.4 | 0.00 | 0.00 | 0.00 | 51 | 1017.1 |
| 20260507140504 | 61 | 165 | 4.3 | 8.7 | 0.00 | 0.00 | 0.00 | 54 | 1017.0 |
| 20260507140007 | 61 | 112 | 3.5 | 7.8 | 0.00 | 0.00 | 0.00 | 55 | 1017.0 |
| 20260507135504 | 60 | 154 | 1.7 | 7.0 | 0.00 | 0.00 | 0.00 | 55 | 1017.1 |
| 20260507135011 | 60 | 104 | 2.6 | 7.8 | 0.00 | 0.00 | 0.00 | 54 | 1017.1 |
| 20260507134505 | 59 | 220 | 3.5 | 7.8 | 0.00 | 0.00 | 0.00 | 56 | 1017.1 |
| 20260507133506 | 59 | 161 | 4.3 | 10.4 | 0.00 | 0.00 | 0.00 | 56 | 1017.1 |
| 20260507133013 | 59 | 161 | 4.3 | 10.4 | 0.00 | 0.00 | 0.00 | 56 | 1017.1 |
| 20260507132506 | 60 | 164 | 2.6 | 7.8 | 0.00 | 0.00 | 0.00 | 56 | 1017.1 |
| 20260507131506 | 58 | 127 | 3.5 | 7.0 | 0.00 | 0.00 | 0.00 | 58 | 1017.2 |
| 20260507131013 | 58 | 148 | 4.3 | 10.4 | 0.00 | 0.00 | 0.00 | 58 | 1017.2 |
| 20260507130507 | 58 | 175 | 1.7 | 6.1 | 0.00 | 0.00 | 0.00 | 58 | 1017.2 |
| 20260507130005 | 58 | 166 | 4.3 | 7.8 | 0.00 | 0.00 | 0.00 | 57 | 1017.1 |
| 20260507125506 | 58 | 166 | 2.6 | 5.2 | 0.00 | 0.00 | 0.00 | 58 | 1017.2 |
| 20260507124013 | 58 | 164 | 3.5 | 7.0 | 0.00 | 0.00 | 0.00 | 58 | 1017.2 |
| 20260507123509 | 58 | 201 | 2.6 | 6.1 | 0.00 | 0.00 | 0.00 | 56 | 1017.3 |
| 20260507123013 | 58 | 232 | 2.6 | 6.1 | 0.00 | 0.00 | 0.00 | 58 | 1017.3 |
| 20260507122506 | 58 | 205 | 2.6 | 7.0 | 0.00 | 0.00 | 0.00 | 58 | 1017.3 |
| 20260507122013 | 58 | 172 | 1.7 | 6.1 | 0.00 | 0.00 | 0.00 | 56 | 1017.4 |
| 20260507121506 | 58 | 215 | 2.6 | 7.8 | 0.00 | 0.00 | 0.00 | 56 | 1017.3 |
| 20260507121013 | 58 | 164 | 2.6 | 7.8 | 0.00 | 0.00 | 0.00 | 57 | 1017.3 |
| 20260507120506 | 58 | 202 | 1.7 | 4.3 | 0.00 | 0.00 | 0.00 | 56 | 1017.3 |
| 20260507120006 | 58 | 228 | 1.7 | 6.1 | 0.00 | 0.00 | 0.00 | 55 | 1017.3 |
| 20260507115506 | 58 | 85 | 1.7 | 6.1 | 0.00 | 0.00 | 0.00 | 54 | 1017.3 |
| 20260507115013 | 58 | 166 | 1.7 | 7.0 | 0.00 | 0.00 | 0.00 | 54 | 1017.4 |
| 20260507114505 | 58 | 229 | 4.3 | 8.7 | 0.00 | 0.00 | 0.00 | 55 | 1017.4 |
| 20260507114013 | 58 | 178 | 6.1 | 10.4 | 0.00 | 0.00 | 0.00 | 55 | 1017.4 |
| 20260507113505 | 58 | 175 | 2.6 | 7.0 | 0.00 | 0.00 | 0.00 | 57 | 1017.4 |
| 20260507113013 | 58 | 137 | 1.7 | 7.0 | 0.00 | 0.00 | 0.00 | 56 | 1017.4 |
| 20260507112505 | 59 | 144 | 6.1 | 8.7 | 0.00 | 0.00 | 0.00 | 58 | 1017.4 |
| 20260507112013 | 58 | 187 | 2.6 | 7.0 | 0.00 | 0.00 | 0.00 | 60 | 1017.5 |
| 20260507111013 | 58 | 135 | 5.2 | 8.7 | 0.00 | 0.00 | 0.00 | 61 | 1017.5 |
| 20260507110506 | 57 | 172 | 3.5 | 7.8 | 0.00 | 0.00 | 0.00 | 61 | 1017.5 |
| 20260507110006 | 56 | 137 | 2.6 | 6.1 | 0.00 | 0.00 | 0.00 | 63 | 1017.5 |
| 20260507105506 | 55 | 138 | 3.5 | 7.8 | 0.00 | 0.00 | 0.00 | 63 | 1017.5 |
| 20260507105016 | 55 | 134 | 4.3 | 7.0 | 0.00 | 0.00 | 0.00 | 63 | 1017.6 |
| 20260507104505 | 55 | 132 | 2.6 | 7.0 | 0.00 | 0.00 | 0.00 | 63 | 1017.6 |
| 20260507104014 | 55 | 208 | 1.7 | 7.0 | 0.00 | 0.00 | 0.00 | 62 | 1017.6 |
| 20260507103506 | 55 | 147 | 1.7 | 7.0 | 0.00 | 0.00 | 0.00 | 62 | 1017.6 |
| 20260507103012 | 55 | 161 | 6.1 | 8.7 | 0.00 | 0.00 | 0.00 | 63 | 1017.6 |
| 20260507102506 | 55 | 147 | 2.6 | 6.1 | 0.00 | 0.00 | 0.00 | 62 | 1017.6 |
| 20260507102012 | 55 | 152 | 2.6 | 6.1 | 0.00 | 0.00 | 0.00 | 63 | 1017.6 |
| 20260507101013 | 55 | 166 | 2.6 | 5.2 | 0.00 | 0.00 | 0.00 | 63 | 1017.7 |
| 20260507095506 | 55 | 210 | 1.7 | 4.3 | 0.00 | 0.00 | 0.00 | 64 | 1017.6 |
| 20260507095012 | 55 | 229 | 1.7 | 4.3 | 0.00 | 0.00 | 0.00 | 65 | 1017.6 |
| 20260507094505 | 55 | 176 | 1.7 | 2.6 | 0.00 | 0.00 | 0.00 | 65 | 1017.5 |
| 20260507094013 | 55 | 187 | 1.7 | 2.6 | 0.00 | 0.00 | 0.00 | 65 | 1017.6 |
| 20260507093506 | 55 | 133 | 1.7 | 6.1 | 0.00 | 0.00 | 0.00 | 65 | 1017.6 |
| 20260507093013 | 55 | 223 | 0.0 | 1.7 | 0.00 | 0.00 | 0.00 | 66 | 1017.5 |
| 20260507092505 | 55 | 223 | 0.9 | 2.6 | 0.00 | 0.00 | 0.00 | 66 | 1017.6 |
| 20260507092012 | 55 | 165 | 2.6 | 6.1 | 0.00 | 0.00 | 0.00 | 66 | 1017.5 |
| 20260507091013 | 55 | 154 | 1.7 | 2.6 | 0.00 | 0.00 | 0.00 | 68 | 1017.5 |
| 20260507090506 | 55 | 195 | 0.9 | 5.2 | 0.00 | 0.00 | 0.00 | 69 | 1017.5 |
| 20260507090006 | 55 | 155 | 0.9 | 2.6 | 0.00 | 0.00 | 0.00 | 69 | 1017.5 |
| 20260507085013 | 54 | 134 | 3.5 | 6.1 | 0.00 | 0.00 | 0.00 | 69 | 1017.5 |
| 20260507084505 | 54 | 152 | 2.6 | 6.1 | 0.00 | 0.00 | 0.00 | 70 | 1017.5 |
| 20260507084013 | 53 | 152 | 3.5 | 6.1 | 0.00 | 0.00 | 0.00 | 71 | 1017.5 |
| 20260507083506 | 53 | 147 | 3.5 | 7.8 | 0.00 | 0.00 | 0.00 | 72 | 1017.5 |
| 20260507083012 | 53 | 146 | 1.7 | 7.8 | 0.00 | 0.00 | 0.00 | 71 | 1017.5 |
| 20260507082505 | 53 | 126 | 1.7 | 6.1 | 0.00 | 0.00 | 0.00 | 72 | 1017.6 |
| 20260507082013 | 53 | 172 | 2.6 | 7.8 | 0.00 | 0.00 | 0.00 | 72 | 1017.5 |
| 20260507081506 | 53 | 108 | 3.5 | 7.0 | 0.00 | 0.00 | 0.00 | 73 | 1017.5 |
| 20260507081012 | 53 | 182 | 0.9 | 5.2 | 0.00 | 0.00 | 0.00 | 73 | 1017.5 |
| 20260507080506 | 53 | 136 | 3.5 | 7.0 | 0.00 | 0.00 | 0.00 | 73 | 1017.4 |
| 20260507080005 | 53 | 114 | 0.9 | 5.2 | 0.00 | 0.00 | 0.00 | 73 | 1017.4 |
| 20260507075505 | 53 | 158 | 2.6 | 6.1 | 0.00 | 0.00 | 0.00 | 73 | 1017.5 |
| 20260507075012 | 53 | 151 | 4.3 | 7.0 | 0.00 | 0.00 | 0.00 | 74 | 1017.4 |
| 20260507074505 | 53 | 99 | 2.6 | 6.1 | 0.00 | 0.00 | 0.00 | 74 | 1017.3 |
| 20260507072505 | 51 | 148 | 2.6 | 6.1 | 0.00 | 0.00 | 0.00 | 77 | 1017.4 |
| 20260507072012 | 51 | 106 | 2.6 | 5.2 | 0.00 | 0.00 | 0.00 | 77 | 1017.4 |
| 20260507071012 | 50 | 110 | 2.6 | 5.2 | 0.00 | 0.00 | 0.00 | 77 | 1017.3 |
| 20260507070506 | 50 | 150 | 2.6 | 6.1 | 0.00 | 0.00 | 0.00 | 77 | 1017.3 |
| 20260507070010 | 50 | 140 | 1.7 | 5.2 | 0.00 | 0.00 | 0.00 | 78 | 1017.3 |
| 20260507064505 | 51 | 99 | 1.7 | 2.6 | 0.00 | 0.00 | 0.00 | 78 | 1017.3 |
| 20260507064013 | 50 | 136 | 1.7 | 2.6 | 0.00 | 0.00 | 0.00 | 79 | 1017.3 |
| 20260507063505 | 50 | 123 | 2.6 | 2.6 | 0.00 | 0.00 | 0.00 | 80 | 1017.2 |
| 20260507062505 | 49 | 107 | 1.7 | 5.2 | 0.00 | 0.00 | 0.00 | 82 | 1017.1 |
| 20260507062013 | 49 | 94 | 1.7 | 5.2 | 0.00 | 0.00 | 0.00 | 82 | 1017.1 |
| 20260507061505 | 48 | 110 | 2.6 | 5.2 | 0.00 | 0.00 | 0.00 | 82 | 1017.1 |
| 20260507061012 | 48 | 96 | 2.6 | 2.6 | 0.00 | 0.00 | 0.00 | 83 | 1017.0 |
| 20260507060506 | 48 | 92 | 1.7 | 2.6 | 0.00 | 0.00 | 0.00 | 83 | 1017.0 |
| 20260507060006 | 47 | 100 | 2.6 | 6.1 | 0.00 | 0.00 | 0.00 | 83 | 1017.0 |
| 20260507055505 | 47 | 94 | 1.7 | 5.2 | 0.00 | 0.00 | 0.00 | 84 | 1017.0 |
| 20260507054505 | 47 | 89 | 1.7 | 2.6 | 0.00 | 0.00 | 0.00 | 84 | 1017.0 |
| 20260507054013 | 47 | 107 | 0.0 | 2.6 | 0.00 | 0.00 | 0.00 | 84 | 1016.9 |
| 20260507053506 | 47 | 94 | 0.9 | 2.6 | 0.00 | 0.00 | 0.00 | 84 | 1016.9 |
| 20260507053012 | 47 | 101 | 0.9 | 2.6 | 0.00 | 0.00 | 0.00 | 84 | 1016.9 |
| 20260507051505 | 47 | 105 | 0.9 | 2.6 | 0.00 | 0.00 | 0.00 | 84 | 1016.8 |
| 20260507051012 | 47 | 85 | 1.7 | 2.6 | 0.00 | 0.00 | 0.00 | 84 | 1016.7 |
| 20260507050506 | 47 | 114 | 1.7 | 2.6 | 0.00 | 0.00 | 0.00 | 84 | 1016.7 |
| 20260507050006 | 47 | 102 | 1.7 | 2.6 | 0.00 | 0.00 | 0.00 | 84 | 1016.7 |
| 20260507045505 | 46 | 96 | 2.6 | 5.2 | 0.00 | 0.00 | 0.00 | 85 | 1016.7 |
| 20260507045012 | 46 | 101 | 1.7 | 5.2 | 0.00 | 0.00 | 0.00 | 85 | 1016.6 |
| 20260507044506 | 46 | 110 | 1.7 | 2.6 | 0.00 | 0.00 | 0.00 | 85 | 1016.6 |
| 20260507044012 | 46 | 138 | 1.7 | 2.6 | 0.00 | 0.00 | 0.00 | 86 | 1016.6 |
| 20260507043505 | 46 | 94 | 1.7 | 5.2 | 0.00 | 0.00 | 0.00 | 86 | 1016.6 |
| 20260507043012 | 46 | 130 | 0.9 | 2.6 | 0.00 | 0.00 | 0.00 | 87 | 1016.6 |
| 20260507042505 | 46 | 108 | 1.7 | 5.2 | 0.00 | 0.00 | 0.00 | 87 | 1016.6 |
| 20260507042012 | 45 | 96 | 1.7 | 2.6 | 0.00 | 0.00 | 0.00 | 87 | 1016.6 |
| 20260507041505 | 45 | 94 | 0.0 | 2.6 | 0.00 | 0.00 | 0.00 | 87 | 1016.7 |
| 20260507041013 | 45 | 101 | 0.0 | 1.7 | 0.00 | 0.00 | 0.00 | 87 | 1016.6 |
| 20260507040505 | 45 | 101 | 0.9 | 0.9 | 0.00 | 0.00 | 0.00 | 87 | 1016.7 |
| 20260507040005 | 45 | 101 | 0.0 | 0.9 | 0.00 | 0.00 | 0.00 | 87 | 1016.7 |
| 20260507035505 | 45 | 101 | 0.0 | 1.7 | 0.00 | 0.00 | 0.00 | 87 | 1016.6 |
| 20260507035012 | 45 | 101 | 0.9 | 2.6 | 0.00 | 0.00 | 0.00 | 87 | 1016.6 |
| 20260507034505 | 45 | 101 | 0.0 | 2.6 | 0.00 | 0.00 | 0.00 | 86 | 1016.6 |
| 20260507034012 | 45 | 93 | 0.9 | 1.7 | 0.00 | 0.00 | 0.00 | 86 | 1016.5 |
| 20260507033505 | 45 | 103 | 0.9 | 2.6 | 0.00 | 0.00 | 0.00 | 86 | 1016.5 |
| 20260507033012 | 46 | 55 | 0.0 | 0.9 | 0.00 | 0.00 | 0.00 | 86 | 1016.5 |
| 20260507032505 | 46 | 55 | 0.0 | 0.9 | 0.00 | 0.00 | 0.00 | 86 | 1016.5 |
| 20260507032012 | 46 | 55 | 0.0 | 1.7 | 0.00 | 0.00 | 0.00 | 86 | 1016.5 |
| 20260507031505 | 46 | 55 | 0.0 | 0.9 | 0.00 | 0.00 | 0.00 | 86 | 1016.5 |
| 20260507031012 | 46 | 55 | 0.0 | 0.9 | 0.00 | 0.00 | 0.00 | 86 | 1016.5 |
| 20260507030505 | 46 | 55 | 0.0 | 2.6 | 0.00 | 0.00 | 0.00 | 85 | 1016.5 |
| 20260507030005 | 46 | 55 | 0.9 | 1.7 | 0.00 | 0.00 | 0.00 | 85 | 1016.6 |
| 20260507025012 | 47 | 55 | 0.0 | 0.0 | 0.00 | 0.00 | 0.00 | 85 | 1016.6 |
| 20260507024012 | 47 | 55 | 0.0 | 0.9 | 0.00 | 0.00 | 0.00 | 85 | 1016.5 |
| 20260507023505 | 47 | 55 | 0.9 | 1.7 | 0.00 | 0.00 | 0.00 | 85 | 1016.5 |
| 20260507023013 | 47 | 55 | 0.0 | 0.9 | 0.00 | 0.00 | 0.00 | 85 | 1016.5 |
| 20260507022505 | 47 | 55 | 0.9 | 1.7 | 0.00 | 0.00 | 0.00 | 85 | 1016.5 |
| 20260507022013 | 47 | 55 | 0.0 | 1.7 | 0.00 | 0.00 | 0.00 | 85 | 1016.5 |
| 20260507021505 | 47 | 55 | 0.9 | 2.6 | 0.00 | 0.00 | 0.00 | 85 | 1016.5 |
| 20260507021012 | 47 | 55 | 0.0 | 1.7 | 0.00 | 0.00 | 0.00 | 85 | 1016.5 |
| 20260507020505 | 47 | 55 | 0.0 | 0.9 | 0.00 | 0.00 | 0.00 | 85 | 1016.4 |
| 20260507020005 | 47 | 55 | 0.0 | 0.9 | 0.00 | 0.00 | 0.00 | 85 | 1016.3 |
| 20260507015505 | 47 | 55 | 0.0 | 1.7 | 0.00 | 0.00 | 0.00 | 85 | 1016.3 |
| 20260507015012 | 47 | 51 | 0.0 | 1.7 | 0.00 | 0.00 | 0.00 | 86 | 1016.3 |
| 20260507014505 | 47 | 78 | 0.0 | 2.6 | 0.00 | 0.00 | 0.00 | 85 | 1016.4 |
| 20260507014012 | 47 | 60 | 0.9 | 2.6 | 0.00 | 0.00 | 0.00 | 85 | 1016.4 |
| 20260507013505 | 47 | 74 | 1.7 | 2.6 | 0.00 | 0.00 | 0.00 | 85 | 1016.4 |
| 20260507013012 | 47 | 36 | 1.7 | 2.6 | 0.00 | 0.00 | 0.00 | 85 | 1016.3 |
| 20260507012505 | 47 | 26 | 1.7 | 2.6 | 0.00 | 0.00 | 0.00 | 85 | 1016.3 |
| 20260507012012 | 47 | 23 | 1.7 | 4.3 | 0.00 | 0.00 | 0.00 | 85 | 1016.4 |
| 20260507011505 | 47 | 13 | 0.9 | 2.6 | 0.00 | 0.00 | 0.00 | 85 | 1016.3 |
| 20260507011012 | 47 | 17 | 0.0 | 2.6 | 0.00 | 0.00 | 0.00 | 85 | 1016.3 |
| 20260507010505 | 47 | 40 | 0.0 | 1.7 | 0.00 | 0.00 | 0.00 | 85 | 1016.3 |
| 20260507010005 | 47 | 40 | 0.0 | 1.7 | 0.00 | 0.00 | 0.00 | 85 | 1016.3 |
| 20260507005505 | 47 | 40 | 0.9 | 0.9 | 0.00 | 0.00 | 0.00 | 85 | 1016.3 |
| 20260507005012 | 47 | 40 | 0.9 | 2.6 | 0.00 | 0.00 | 0.00 | 85 | 1016.3 |